Regional Weather Roundup
Issued by NWS State College, PA

Home | Current Version | Previous Version | Graphics & Text | Print | Product List | Glossary On
Versions: 1 2 3 4 5 6 7 8 9 10 11 12 13 14 15 16 17 18 19 20 21 22 23 24 25 26 27 28 29 30 31 32 33 34 35 36 37 38 39 40 41 42 43 44 45 46 47 48 49 50
000
ASUS41 KCTP 250110
RWRCTP

REGIONAL WEATHER ROUNDUP
NATIONAL WEATHER SERVICE STATE COLLEGE PA
900 PM EDT THU APR 24 2014

Note: "fair" indicates few or no clouds below 12,000 feet with no
significant weather and/or obstructions to visibility.

* = STATION THAT DOES NOT REPORT PRECIPITATION /E.G. RAIN...SNOW...ETC/
    THUNDER OR FOG.

PAZ002>004-007>009-013>016-020>023-029>032-250200-
WESTERN PENNSYLVANIA

CITY           SKY/WX    TMP DP  RH WIND       PRES   REMARKS
ERIE           PTCLDY    46  16  30 NE8       30.02F
MEADVILLE      CLEAR     48  20  32 NE9       29.99F
FRANKLIN*      CLEAR     52  16  24 E3        30.01F
NEW CASTLE     FAIR      51  18  27 CALM      29.99F
BEAVER COUNTY  CLEAR     54  19  26 CALM      29.99S
BUTLER*        MOCLDY    52  19  28 SE3       30.01S
PITTSBURGH INT CLOUDY    55  19  24 E6        29.98S
PITTSBURGH     MOCLDY    56  18  22 E5        29.98S
INDIANA*       MOCLDY    48  25  40 CALM      30.01S
LATROBE        CLEAR     52  23  32 N5        30.01S
WASHINGTON CO* MOCLDY    46  28  49 CALM      29.99F
$$

PAZ004>006-010>012-017>019-024>028-033>037-041-042-045-046-049>053-250200-
CENTRAL PENNSYLVANIA

CITY           SKY/WX    TMP DP  RH WIND       PRES   REMARKS
BRADFORD       CLEAR     47  10  22 NE3       30.01S
DUBOIS         PTCLDY    53  10  18 E3        29.99S
CLEARFIELD     PTCLDY    50  14  23 N6        30.00S
JOHNSTOWN      CLEAR     50  14  23 E5        29.99S
ALTOONA        CLEAR     52  19  27 SE3       30.01R
STATE COLLEGE  CLEAR     55   9  15 CALM      30.00S
WILLIAMSPORT   CLEAR     49  19  30 S3        30.02S
SELINSGROVE    CLEAR     50  21  32 CALM      30.02R
FT INDIANTOWN  CLEAR     49  23  35 N3        30.02R
CAPITAL CITY   PTCLDY    50  28  42 SW3       30.01R
HARRISBURG     PTCLDY    54  35  48 CALM      30.00R
YORK           PTCLDY    43  33  68 CALM      30.01R
$$

PAZ038>040-043-044-047-048-054-055-060>062-067>071-250200-
EASTERN PENNSYLVANIA

CITY           SKY/WX    TMP DP  RH WIND       PRES   REMARKS
SCRANTON       CLEAR     48  10  21 NW9G17    30.04R
MOUNT POCONO   CLEAR     44   8  23 NW12      30.00R
ALLENTOWN      CLEAR     50  13  22 NW3       30.02R
QUAKERTOWN*    CLEAR     52  14  22 N7        30.02R
READING        CLEAR     54  16  22 N7        30.01R
LANCASTER      CLEAR     51  19  28 N5        30.01R
COATESVILLE    CLEAR     50  14  23 NW6       30.02R
POTTSTOWN      CLEAR     52  14  22 N7        30.03R
BLUE BELL      CLEAR     55  12  18 CALM      30.01R
DOYLESTOWN     CLEAR     52  13  21 NW6       30.00R
WILLOW GROVE   NOT AVBL
NORTH PHILA    CLEAR     55  12  18 N10       30.02R
PHILADELPHIA   PTCLDY    58  13  17 N8        30.02R
$$



USA.gov is the U.S. government's official web portal to all federal, state and local government web resources and services.